Location: Port-Aux-Quilles Astronomical Observatory
(47.9769°N, 69.9642°W)
Time: 03:33:14
(UTC-04:00)

Tiangong 2 - Visible Passes

Search period start: 23 March 2019 00:00
Search period end: 02 April 2019 00:00
Orbit: 380 x 390 km, 42.8° (Epoch: 23 March)

Date Brightness Start Highest point End Pass type
(mag) Time Alt. Az. Time Alt. Az. Time Alt. Az.
30 Mar 3.5 20:24:06 10° S 20:24:26 11° S 20:24:26 11° S visible
31 Mar 3.3 20:59:31 10° SW 21:00:26 15° SSW 21:00:26 15° SSW visible
01 Apr 2.9 20:00:34 10° SSW 20:02:40 17° SSE 20:04:02 13° SE visible
01 Apr 4.0 21:36:05 10° WSW 21:36:16 11° WSW 21:36:16 11° WSW visible
